Location: Brede
(50.9167°N, 0.6000°E)
Time: 21:25:06
(UTC+00:00)

X-37B - Pass Details

Date: 04 November 2020
Orbit: 384 x 390 km, 45.0° (Epoch: 26 November)

Event Time Altitude Azimuth Distance (km) Brightness Sun altitude
Exits shadow 04:41:22 - 172° (S) 1,466 3.6 -21.4°
Reaches altitude 10° 04:41:51 10° 163° (SSE) 1,412 3.6 -21.3°
Maximum altitude 04:42:30 11° 152° (SSE) 1,385 3.7 -21.2°
Drops below altitude 10° 04:43:09 10° 140° (SE) 1,413 3.9 -21.1°
Sets 04:46:43 0° 98° (E) 2,270 6.0 -20.5°
